RH
11 11 10 9 9 10 10 11 11 10 10 10 12 13 14 15 15 14 14 14 14 13 15 21 24 22 25 32 43 57 70 63 65 63 66 60 48 36 56 44 52 53 64 59 69
12 11 10 10 9 9 8 9 10 10 9 9 9 12 12 14 14 14 15 16 16 15 19 22 26 33 30 38 50 61 65 59 68 74 76 73 67 44 52 60 64 51 63 61 61
6 8 9 9 10 10 10 9 9 9 9 9 8 8 11 11 14 14 16 18 19 18 19 23 28 34 45 54 62 62 52 59 61 70 73 76 65 63 64 53 75 71 52 59 54
7 7 6 6 7 8 9 10 10 8 8 9 9 8 8 11 15 14 15 17 20 23 22 26 27 29 42 50 60 66 56 62 61 63 73 73 73 65 68 59 80 80 74 57 63
7 7 8 8 8 8 8 8 9 10 8 8 9 8 8 9 9 11 13 14 20 24 25 24 27 29 41 48 55 55 54 56 60 60 68 65 64 65 65 66 76 83 82 51 65
9 8 7 7 8 8 8 8 9 9 10 8 8 8 9 8 7 8 11 13 18 25 27 27 33 34 40 51 53 56 52 55 51 47 42 51 54 66 59 61 84 84 96 79 77
9 9 9 9 8 6 7 8 8 9 9 10 8 8 8 8 7 7 7 10 13 17 25 30 31 40 44 44 51 52 49 50 53 53 46 58 60 63 60 55 64 73 98 95 99
6 7 7 7 7 6 6 5 7 8 9 8 9 9 8 8 7 7 7 7 10 14 22 28 31 37 38 38 36 38 49 55 50 56 58 57 52 55 59 65 61 77 83 95 88
6 5 4 4 3 3 3 3 4 6 8 9 9 9 9 8 8 7 7 8 8 11 16 15 20 26 33 41 37 44 55 57 54 50 51 55 52 45 56 62 65 66 75 95 98
18 18 16 12 9 7 4 3 3 3 6 6 8 9 8 8 8 8 7 9 7 8 12 15 14 16 20 38 54 62 63 58 61 54 51 52 49 51 49 76 68 66 73 77 89
8 9 12 16 19 19 17 14 9 5 4 4 5 9 8 8 8 8 8 9 8 8 9 15 15 22 20 32 36 52 52 60 45 55 52 49 46 46 47 61 73 68 72 74 73
5 5 6 8 10 14 19 20 19 15 15 12 7 9 6 7 8 9 8 10 10 8 9 13 11 18 13 26 25 34 49 58 44 51 47 48 46 48 45 53 75 65 78 83 74
13 9 7 6 7 10 12 17 21 21 19 16 11 9 6 6 9 10 9 10 12 10 9 11 11 13 15 21 17 24 44 53 56 41 45 47 46 41 52 42 58 68 90 85 85
63 42 28 16 13 14 10 13 18 19 19 17 13 10 6 5 10 10 10 11 14 12 10 10 12 11 11 19 20 23 36 54 51 40 47 45 53 54 52 49 52 66 67 85 91
70 77 71 71 56 26 21 12 18 22 35 17 14 9 7 7 10 11 11 13 12 14 13 11 11 11 12 21 20 21 34 34 42 42 43 40 41 39 35 34 38 47 47 69 75
58 63 72 65 68 62 32 17 24 19 15 14 13 10 8 10 12 10 12 12 14 14 17 15 12 13 14 18 20 20 23 24 34 38 58 50 46 42 38 39 41 38 34 41 79
72 58 67 52 48 53 54 32 19 15 14 15 12 10 10 12 12 11 12 12 15 16 18 21 16 14 16 18 18 23 22 32 40 61 66 47 43 45 37 42 44 42 39 37 45
54 58 67 60 54 35 34 18 18 16 14 13 12 12 14 13 13 12 12 13 20 20 20 20 19 16 16 20 24 30 36 44 45 74 71 40 42 44 41 44 33 30 34 39 37
50 64 74 69 63 55 26 19 18 15 16 15 15 16 14 14 14 13 13 15 18 20 24 23 19 18 18 20 26 33 39 33 51 62 59 44 38 43 47 47 33 33 30 26 22
56 55 72 66 63 59 42 28 23 19 19 18 19 18 16 15 14 13 14 17 17 24 22 23 26 20 21 21 28 32 32 30 31 55 65 47 29 49 49 47 38 33 36 30 25
64 57 66 66 66 63 40 30 23 21 21 21 21 19 17 15 15 14 16 17 25 21 20 26 28 25 24 24 27 34 35 31 32 49 53 54 31 35 51 44 39 33 33 33 35
67 64 69 72 71 62 39 27 23 22 22 21 18 16 16 18 22 19 16 17 20 24 26 28 30 30 26 25 30 33 34 33 37 37 40 46 41 47 46 39 35 33 36 41 41
67 63 65 71 66 56 29 24 22 22 20 19 16 16 18 25 27 26 29 24 23 27 26 29 34 35 26 33 36 38 40 42 41 44 45 50 37 44 39 35 32 39 39 42 43
78 81 65 76 73 62 42 31 28 23 22 19 18 18 24 30 42 47 41 27 24 30 38 34 27 27 28 36 40 51 57 46 47 53 47 44 39 39 36 31 34 43 45 49 51
82 83 71 74 75 69 39 26 21 21 20 19 21 26 32 47 54 50 41 44 50 53 46 50 47 50 53 56 63 62 47 46 46 45 52 47 46 46 49 52 55 54 56 54 53
85 83 82 80 77 82 55 39 30 25 23 23 26 36 48 54 48 47 53 60 63 60 59 64 60 63 68 62 59 54 50 41 37 44 46 46 49 45 64 73 75 71 65 60 59
86 80 82 80 74 74 63 44 35 30 31 31 35 46 54 60 63 62 62 62 65 69 72 82 81 81 74 65 65 45 43 42 43 42 42 44 42 53 68 80 80 68 67 71 77
Wind_Speed
15 15 16 17 18 18 18 19 19 21 23 24 25 26 26 18 25 25 25 26 23 23 23 23 22 20 18 17 16 16 14 18 20 20 23 18 16 20 20 29 27 27 26 29 25
12 13 13 13 14 16 17 17 18 19 20 22 22 23 25 21 24 26 28 26 24 24 22 21 18 18 16 15 16 17 21 22 19 19 22 18 17 17 25 21 24 31 22 24 28
11 11 10 10 11 13 14 15 16 17 18 19 20 21 22 24 20 26 27 26 26 24 23 22 20 17 15 16 16 19 22 20 21 20 20 22 21 18 21 26 15 21 23 28 29
9 10 11 11 11 12 13 14 14 15 16 17 18 20 21 22 16 23 25 26 26 23 22 21 20 17 15 15 15 18 14 17 19 18 22 24 22 21 21 21 10 18 20 24 29
9 10 11 12 13 13 14 14 14 15 15 16 16 18 20 20 21 22 23 25 26 24 21 21 22 19 16 17 14 15 17 19 18 21 24 24 24 20 19 14 13 15 17 25 28
8 8 9 10 12 13 14 15 16 15 15 15 16 16 18 18 20 21 21 23 24 23 20 21 21 19 18 20 16 16 19 14 19 16 20 18 17 14 13 15 12 12 12 20 28
9 10 10 11 12 12 13 14 15 16 17 14 14 13 16 17 18 20 21 21 21 23 20 21 20 20 22 20 20 16 17 13 19 22 13 6 9 11 10 11 16 14 13 15 18
12 13 14 15 15 15 15 14 15 16 16 18 14 15 13 17 19 20 20 21 20 20 20 20 19 19 21 22 16 16 12 21 19 17 13 8 11 7 5 8 12 15 13 15 22
15 15 15 16 16 18 17 17 16 16 16 18 17 15 11 16 16 19 19 19 20 19 17 18 20 22 25 24 18 18 23 20 21 16 11 10 14 5 4 7 11 15 13 11 19
18 18 17 18 18 19 19 19 18 17 15 19 13 11 13 16 15 18 20 17 19 19 17 16 20 23 25 26 19 25 23 23 24 14 8 12 10 6 3 6 7 12 10 8 10
19 19 20 20 20 20 19 19 19 18 19 18 19 9 12 16 14 16 19 17 16 18 19 13 19 23 26 24 26 20 18 22 11 16 15 8 7 1 0 6 6 1 9 11 10
18 19 20 21 20 21 21 21 20 20 21 20 18 7 11 18 15 15 18 20 15 17 21 13 16 20 27 22 27 20 22 21 11 13 15 7 3 1 5 8 4 10 1 7 3
18 18 20 21 22 21 20 20 19 20 23 21 9 5 11 19 14 16 18 19 18 17 20 14 17 19 27 22 28 27 21 16 14 14 19 14 16 9 6 6 4 11 11 7 8
19 18 18 21 21 22 21 21 19 19 19 7 3 3 12 19 8 16 17 20 18 17 18 11 16 20 27 24 27 27 16 10 12 14 14 20 10 24 15 11 9 8 11 9 11
20 20 21 22 22 22 22 20 17 22 5 6 4 5 15 20 15 13 15 18 18 15 19 17 16 21 27 21 24 31 10 9 9 10 12 16 13 18 23 22 18 13 12 4 8
22 22 21 20 20 19 20 17 17 9 5 4 5 10 17 21 12 13 16 17 11 16 19 16 14 21 24 21 19 28 9 6 9 6 9 17 6 18 22 24 24 24 16 12 3
25 24 20 17 18 18 17 17 9 4 7 4 8 16 21 16 11 14 15 17 12 14 22 19 12 19 23 25 18 27 28 8 6 7 2 12 11 10 18 21 21 20 19 20 17
25 22 17 20 19 18 15 12 5 6 9 15 14 20 16 9 11 17 14 13 10 14 15 13 12 18 22 21 18 19 17 6 1 2 5 9 6 6 15 15 17 16 13 11 11
24 22 20 20 21 20 16 10 6 8 9 11 18 14 8 11 16 9 14 6 8 12 14 9 10 14 21 17 15 12 12 14 3 1 1 6 6 11 6 6 4 13 11 16 13
23 24 20 23 23 20 16 15 13 13 14 14 13 8 11 18 11 13 7 6 10 9 17 14 12 10 21 12 10 13 15 10 8 4 4 6 3 8 6 6 10 20 15 23 13
24 24 23 24 21 18 14 13 12 12 12 10 13 14 13 9 11 12 5 8 6 14 17 16 9 21 19 11 7 10 10 13 5 4 2 3 2 6 1 6 15 19 17 15 8
23 26 25 21 21 16 13 14 13 13 13 13 14 9 5 8 8 7 6 9 12 15 14 11 14 16 18 3 10 7 11 14 4 3 6 3 3 2 2 13 18 15 11 10 12
24 25 25 16 15 15 15 14 14 16 14 8 5 9 9 7 6 6 11 12 13 12 11 15 7 14 10 3 11 19 18 17 11 10 7 3 3 8 9 21 20 11 7 11 11
24 22 25 24 17 16 17 18 17 15 9 9 13 11 9 9 10 12 16 13 12 15 21 18 13 13 14 22 24 24 26 21 15 8 10 19 21 21 19 20 17 12 9 11 11
23 25 23 19 21 19 15 13 10 13 17 13 11 10 10 11 19 20 16 18 19 22 15 17 18 20 23 25 27 23 17 16 21 21 17 14 12 13 20 17 14 14 15 11 14
26 24 23 23 23 21 20 19 16 15 15 15 14 14 15 18 18 20 21 22 27 20 15 20 16 22 31 22 13 21 25 15 11 14 21 22 23 22 16 12 14 13 12 13 14
23 25 25 25 25 22 19 18 17 16 15 15 15 17 21 21 21 19 23 25 24 26 27 28 23 17 12 14 19 15 6 8 10 11 14 15 18 19 18 16 17 21 21 21 19
Wind_Direction
59 58 55 48 46 43 42 42 40 38 38 34 31 30 26 22 15 13 11 10 6 2 9 7 359 354 351 343 332 319 303 297 295 300 297 300 275 232 234 242 255 243 238 234 229
55 53 46 43 41 40 35 32 33 33 33 31 29 28 27 24 17 12 12 9 6 7 8 5 4 359 357 349 329 314 302 308 307 295 295 292 268 246 238 237 243 248 236 235 231
45 43 38 32 29 26 26 27 23 22 23 23 23 22 23 23 18 14 12 7 7 7 6 4 1 358 353 344 334 317 313 316 300 297 291 288 276 268 253 235 243 250 233 230 231
42 32 27 25 23 18 15 12 9 12 12 13 12 15 15 20 21 12 11 8 6 5 6 4 1 357 348 345 339 322 340 325 330 307 284 275 280 268 243 245 247 248 232 220 223
25 22 16 12 12 12 10 6 2 354 359 4 3 5 8 10 12 11 9 10 8 4 1 359 358 0 356 344 335 340 335 335 322 304 283 268 257 270 258 231 245 244 225 215 221
355 359 3 358 358 359 359 359 359 353 345 350 357 355 358 5 2 3 4 6 10 5 357 358 358 0 356 348 337 325 331 350 349 341 319 265 258 249 270 231 227 248 211 208 217
324 329 334 336 339 341 343 345 347 349 350 332 344 342 351 356 358 357 357 358 4 7 4 0 1 359 351 350 333 325 325 345 345 356 356 313 243 232 279 234 239 238 219 205 203
322 323 327 327 327 328 328 330 333 338 338 344 326 343 344 352 354 355 352 351 354 360 5 8 11 4 353 344 342 343 327 337 345 348 4 315 286 237 304 255 229 237 221 215 224
325 327 329 327 327 327 328 325 326 327 326 337 328 332 343 350 348 350 352 348 350 348 354 1 6 10 4 355 349 344 332 335 340 335 327 330 321 251 307 297 228 220 232 228 206
322 323 323 321 326 325 324 324 326 323 321 326 330 323 339 351 344 346 350 347 349 349 338 352 3 1 2 0 343 331 333 343 341 358 322 323 331 181 316 336 207 219 228 252 241
323 321 320 317 318 318 319 321 322 327 329 325 317 293 334 345 345 347 348 351 346 351 350 337 357 360 1 357 358 347 346 339 1 356 348 25 340 216 251 34 109 186 250 252 267
323 321 319 316 316 316 319 321 325 325 329 322 313 268 336 347 344 346 348 351 348 347 354 352 358 359 1 354 6 1 1 360 22 9 14 356 356 245 135 74 88 44 188 183 206
325 324 323 319 316 318 319 316 317 323 326 319 297 257 340 345 337 344 346 349 353 355 353 349 356 3 5 360 4 12 3 18 7 25 33 68 62 92 83 46 66 41 47 100 106
321 320 321 319 316 319 320 317 319 327 319 300 253 254 334 345 331 336 344 349 355 0 359 347 351 0 7 5 1 1 354 18 23 34 41 65 51 61 64 62 57 23 27 58 65
325 310 310 317 317 320 322 319 317 329 344 310 267 299 335 342 331 335 342 346 347 1 5 356 355 358 6 2 7 360 0 28 32 40 62 59 67 55 62 54 49 37 16 25 74
332 329 321 324 323 316 318 319 322 317 261 301 297 319 328 332 327 336 345 349 345 352 2 6 358 3 0 9 9 6 13 36 51 38 34 18 60 41 50 65 58 52 37 41 76
321 326 329 336 338 329 317 318 319 240 318 303 313 321 324 329 330 338 342 348 359 357 350 4 359 356 355 5 10 13 25 14 33 22 255 13 67 59 80 65 50 45 48 52 57
320 320 322 327 331 329 319 314 261 278 286 299 310 316 320 327 326 333 341 350 360 359 346 345 348 359 356 8 1 21 31 51 29 1 297 13 41 63 86 80 71 44 36 27 36
319 318 314 321 321 317 305 292 270 279 284 297 306 314 315 319 324 332 335 345 355 352 1 329 326 353 358 359 22 20 22 18 360 311 338 0 47 100 68 111 63 13 18 20 2
313 313 318 320 318 316 299 286 275 279 289 298 309 300 306 317 323 334 338 334 342 349 343 331 313 342 351 351 26 29 33 16 13 23 356 335 360 29 79 117 5 358 349 354 359
305 312 316 318 315 313 298 287 283 281 288 297 297 294 303 316 319 333 320 323 333 327 333 333 326 324 351 339 27 39 49 15 23 38 112 320 80 31 208 330 341 352 359 352 346
296 305 310 312 305 301 289 289 284 280 284 289 291 284 285 309 317 318 313 303 308 320 332 329 317 308 335 37 24 43 3 347 12 313 293 259 281 260 186 328 327 331 333 339 329
293 305 308 306 298 301 287 283 280 285 286 277 245 284 287 300 318 292 304 293 299 310 321 332 310 321 341 185 346 320 325 319 310 300 237 192 214 213 270 301 317 328 314 314 319
288 301 301 303 295 290 284 282 279 280 270 269 282 276 272 281 300 304 299 291 293 305 308 308 294 279 266 294 306 307 311 310 301 248 240 237 272 277 281 284 299 315 316 314 308
282 295 294 288 288 285 278 268 268 277 281 279 275 264 270 291 310 309 299 293 296 303 297 304 288 291 296 299 301 296 297 292 268 260 247 285 264 266 289 297 303 314 315 296 282
276 287 289 287 288 282 273 273 274 274 269 273 267 272 278 297 299 297 295 300 303 305 302 298 291 301 302 315 304 308 307 286 269 244 245 247 258 272 275 275 287 283 289 286 270
270 277 278 280 283 281 274 267 269 271 271 268 271 277 288 295 293 289 293 298 295 289 288 288 285 294 290 300 308 300 223 246 267 256 247 245 257 253 253 260 273 279 293 295 290